Regional Weather Roundup
Issued by NWS Grand Forks, ND

Home | Current Version | Previous Version | Graphics & Text | Print | Product List | Glossary On
Versions: 1 2 3 4 5 6 7 8 9 10 11 12 13 14 15 16 17 18 19 20 21 22 23 24 25 26 27 28 29 30 31 32 33 34 35 36 37 38 39 40 41 42 43 44 45 46 47 48 49 50
753
ASUS43 KFGF 171810
RWRFGF
PRAIRIE TO PINES  WEATHER ROUNDUP
NATIONAL WEATHER SERVICE EASTERN NORTH DAKOTA/GRAND FORKS ND
1200 PM CST TUE JAN 17 2017

 **SATELLITE DATA USED TO AUGMENT SKY COVER AT AUTOMATED STATIONS**
 *****  WEATHER ACROSS EASTERN NORTH DAKOTA  *****

CITY           SKY/WX    TMP DP  RH WIND       PRES   REMARKS
GRAND FORKS    FAIR      16  10  77 S15       29.89F WCI   1
6HR MIN TEMP:   1; 6HR MAX TEMP:  17;

GRAND FRKS AFB SUNNY     22  15  74 S12       29.87F WCI  10
DEVILS LAKE    FAIR      25  18  74 SW15      29.81F WCI  13
6HR MIN TEMP:   6; 6HR MAX TEMP:  25;

FARGO          FAIR      17  11  77 S9        29.94F WCI   6
WAHPETON ARPT  FAIR      16  12  86 S5        29.98F WCI   9
$$

 ***** WEATHER ACROSS CENTRAL AND WESTERN NORTH DAKOTA  *****

CITY           SKY/WX    TMP DP  RH WIND       PRES   REMARKS
BISMARCK       FAIR      13   8  81 E5        29.89F WCI   5
6HR MIN TEMP:  -1; 6HR MAX TEMP:  13;

MINOT          FAIR      25  13  60 S23       29.73F WCI  10
6HR MIN TEMP:  16; 6HR MAX TEMP:  25;

JAMESTOWN      FAIR      24  19  81 SW9       29.88F WCI  14
6HR MIN TEMP:   4; 6HR MAX TEMP:  25;

MINOT AFB      NOT AVBL
GARRISON         N/A     21  13  71 SW12      29.79F WCI   9
WILLISTON      FAIR      21  12  68 SW10      29.76F WCI  10
6HR MIN TEMP:   7; 6HR MAX TEMP:  21;

DICKINSON      FAIR      27  15  61 S12       29.79F WCI  17
6HR MIN TEMP:  15; 6HR MAX TEMP:  28;

HETTINGER      FAIR      27  12  53 NW6       29.88F WCI  20
6HR MIN TEMP:   3; 6HR MAX TEMP:  28;

$$

 *****  OTHER AIRPORT OBSERVATIONS IN OUR AREA  *****

CITY           SKY/WX    TMP DP  RH WIND       PRES   REMARKS
WALHALLA       NOT AVBL
GRAFTON AIRPOR FAIR      14  10  85 S13       29.87F WCI   0
VALLEY CITY AR FAIR      16  14  93 SW13      29.93F WCI   2
CANDO          NOT AVBL
CAVALIER APRT    N/A     25  18  74 S15       29.79F WCI  12
GWINNER        FAIR      18  14  86 SW14      29.95F WCI   4
SHEYENNE NWR     N/A     20  12  72 SW7       29.95S WCI  11
ROLLA            N/A    N/A N/A N/A MISG        N/A
 ***** THE ABOVE OBSERVATIONS ARE NON NWS ARE NOT QUALITY
       CONTROLLED AND MAY MIS-REPORT RAIN FOR SNOW...
$$

  *****  WEATHER ACROSS NORTHERN MINNESOTA  *****

CITY           SKY/WX    TMP DP  RH WIND       PRES   REMARKS
FLAG ISLAND    FAIR       9   5  85 S14       29.83F WCI  -8
WARROAD        FAIR      21  18  86 SW7       29.85F WCI  13
ROSEAU         FAIR      14  10  85 S7        29.85F WCI   4
HALLOCK        FAIR      10   9  92 S15       29.83F WCI  -6
THF RVR FALLS  FAIR      17  12  80 S12       29.90F WCI   4
6HR MIN TEMP:  -1; 6HR MAX TEMP:  17; 6HR PCP: TRACE;

BAUDETTE       FAIR      18  10  71 S6        29.85F WCI  10
6HR MIN TEMP:  -5; 6HR MAX TEMP:  18;

WASKISH        FAIR      19  12  73 CALM      29.89F
CROOKSTON      FAIR      10   9  92 S13       29.92F WCI  -5
GREENBUSH NDAW   N/A     18  14  86 S9          N/A  WCI   6
$$
  *****  WEATHER ACROSS CENTRAL AND WEST MINNESOTA  *****

CITY           SKY/WX    TMP DP  RH WIND       PRES   REMARKS
FOSSTON        FAIR      16  10  79 S10       29.91F WCI   3
BEMIDJI        FAIR      21  13  71 S5        29.90F WCI  15
PARK RAPIDS    FAIR      16  10  77 CALM      29.92F HAZE
6HR MIN TEMP:  -5; 6HR MAX TEMP:  16; 6HR PCP: TRACE;

ELBOW LAKE     FAIR      11  10  92 CALM      29.99F FOG
6HR MIN TEMP:   0; 6HR MAX TEMP:  11;

WADENA         FAIR      16  16 100 W3        29.95S
DETROIT LAKES  FAIR      19  16  86 S6        29.94F WCI  11
MOORHEAD       FAIR       9   7  92 S8        29.97F WCI  -4
FERGUS FALLS   FAIR      10   9  92 S5        30.03F WCI   2
MORRIS MN      FAIR      18  16  93 W3        29.99F
STAPLES        FAIR      18  16  93 CALM      29.95F
$$
  *****  WEATHER ELSEWHERE ACROSS MINNESOTA  *****

CITY           SKY/WX    TMP DP  RH WIND       PRES   REMARKS
DULUTH         FOG       32  29  88 NW3       29.91F VSB 3/4
6HR MIN TEMP:  16; 6HR MAX TEMP:  31;

INTRNTL FALLS  FAIR      22  13  68 S6        29.88F WCI  14
6HR MIN TEMP:  -7; 6HR MAX TEMP:  22;

ELY            FAIR      23  23 100 CALM      29.89F
CLOQUET        FOG       27  25  93 CALM      29.92F VSB 1/4
WHEATON        FAIR      21  21 100 S3        30.02F
BRAINERD       FAIR      20  14  77 W6        29.96S WCI  12
6HR MIN TEMP:   2; 6HR MAX TEMP:  20;

HIBBING        FAIR      18  14  84 CALM      29.92S FOG
6HR MIN TEMP:  -3; 6HR MAX TEMP:  19; 6HR PCP: TRACE;

ALEXANDRIA     FAIR      18  15  88 SW3       29.97S
6HR MIN TEMP:   1; 6HR MAX TEMP:  18;

SAINT CLOUD    CLOUDY    30  29  96 W7        29.98S WCI  23
6HR MIN TEMP:  26; 6HR MAX TEMP:  30;

MINNEAPOLIS    PTSUNNY   33  25  72 N7        29.97S
6HR MIN TEMP:  30; 6HR MAX TEMP:  33; 6HR PCP:  0.02;

$$

  *****  WEATHER ACROSS SOUTH DAKOTA  *****

CITY           SKY/WX    TMP DP  RH WIND       PRES   REMARKS
SIOUX FALLS    FAIR      24  18  77 W7        30.03F WCI  16
6HR MIN TEMP:  10; 6HR MAX TEMP:  24;

BROOKINGS      FAIR      22  17  81 SW5       30.00F WCI  16
WATERTOWN      FAIR      13  11  92 CALM      29.98S
6HR MIN TEMP:  -2; 6HR MAX TEMP:  13;

HURON          FAIR      22  14  71 E3        30.04F
6HR MIN TEMP:   1; 6HR MAX TEMP:  22;

SISSETON         N/A     21  17  84 SE3       29.97F
ABERDEEN       FAIR      13   6  74 S8        30.00F WCI   2
6HR MIN TEMP:  -3; 6HR MAX TEMP:  13;

MITCHELL       FAIR      26  19  74 CALM      30.05F
PIERRE         FAIR      20  12  71 SW7       29.99F WCI  11
6HR MIN TEMP:   9; 6HR MAX TEMP:  20;

MOBRIDGE       FAIR      14   7  73 SE9       29.92F WCI   2
RAPID CITY     FAIR      26  15  63 SE3       29.91S
6HR MIN TEMP:   8; 6HR MAX TEMP:  27;

$$

  *****  SOME WEATHER IN NEARBY STATES *****

CITY           SKY/WX    TMP DP  RH WIND       PRES   REMARKS
GLASGOW MT     FAIR      23  16  74 NE9       29.73R WCI  13
6HR MIN TEMP:  12; 6HR MAX TEMP:  23;

GREAT FALLS MT FAIR      40  20  44 SW31      29.85R
6HR MIN TEMP:  31; 6HR MAX TEMP:  40;

CHEYENNE WY    FAIR      41  17  38 S9        30.01F
6HR MIN TEMP:  11; 6HR MAX TEMP:  41;

SCOTTSBLUFF NE FAIR      34  18  52 CALM      30.03F
6HR MIN TEMP:   9; 6HR MAX TEMP:  35;

OMAHA NE       CLOUDY    29  23  78 NW6       30.09F WCI  23
6HR MIN TEMP:  26; 6HR MAX TEMP:  29; 6HR PCP: TRACE;

DES MOINES IA  CLOUDY    35  33  92 NW12      30.03S FOG
6HR MIN TEMP:  34; 6HR MAX TEMP:  36; 6HR PCP: TRACE;

DAVENPORT IA   CLOUDY    36  34  92 W14       29.93S
6HR MIN TEMP:  33; 6HR MAX TEMP:  36;

CHICAGO IL     CLOUDY    38  36  92 W13       29.85S
6HR MIN TEMP:  36; 6HR MAX TEMP:  39; 6HR PCP: TRACE;

EAU CLAIRE WI  CLOUDY    36  34  92 N6        29.90F
6HR MIN TEMP:  33; 6HR MAX TEMP:  36; 6HR PCP:  0.07;

LA CROSSE WI   LGT RAIN  36  34  92 NW7       29.90F FOG
6HR MIN TEMP:  35; 6HR MAX TEMP:  36; 6HR PCP:  0.02;

$$

  *****  SOME NATIONAL WEATHER *****

CITY           SKY/WX    TMP DP  RH WIND       PRES   REMARKS
LA GUARDIA NY  LGT RAIN  40  36  86 E8        30.14F FOG
6HR MIN TEMP:  40; 6HR MAX TEMP:  43; 6HR PCP:  0.10;

RALEIGH NC     CLOUDY    57  52  83 SW13      30.18F
6HR MIN TEMP:  48; 6HR MAX TEMP:  57; 6HR PCP: TRACE;

ATLANTA GA     PTSUNNY   73  55  53 SW14      30.17F
6HR MIN TEMP:  54; 6HR MAX TEMP:  73;

NEW ORLEANS LA PTSUNNY   76  67  73 S10       30.14F
6HR MIN TEMP:  68; 6HR MAX TEMP:  76;

OKLAHOMA CITY  FAIR      48  34  58 NW8       30.18F
6HR MIN TEMP:  33; 6HR MAX TEMP:  48;

ALBUQUERQUE NM FAIR      44  36  73 NW7       30.17S
6HR MIN TEMP:  36; 6HR MAX TEMP:  44;

SALT LAKE CITY FAIR      26  19  74 CALM      30.32S
6HR MIN TEMP:  19; 6HR MAX TEMP:  26;

LOS ANGELES CA FAIR      58  42  55 E8        30.12S
6HR MIN TEMP:  46; 6HR MAX TEMP:  58;

BOISE ID       FAIR    C1F1C2F2C3F3C4F4C5F5C6F6C7F7C8F8C9F9CaFaCbFbCcFcCd!



USA.gov is the U.S. government's official web portal to all federal, state and local government web resources and services.